Richlands, VA

7:48 AM EDT on May 26, 2017 (GMT -0400)
Tazewell County

Weather History for KJFZ - February, 2013

Change the Weather History Date:

Saturday, February 2, 2013

  Actual Average (KBLF) Record (KBLF)
Temperature  
Mean Temperature 19 °F -  
Max Temperature 26 °F 44 °F 68 °F (1989)
Min Temperature 12 °F 27 °F 0 °F (1976)
Degree Days  
Heating Degree Days 46    
Moisture  
Dew Point 16 °F    
Average Humidity 83    
Maximum Humidity 100    
Minimum Humidity 49    
Precipitation  
Precipitation 0.00 in - - ()
Sea Level Pressure  
Sea Level Pressure 30.07 in    
Wind  
Wind Speed 5 mph (SW)    
Max Wind Speed 14 mph    
Max Gust Speed -    
Visibility 7 miles    
Events      
Averages and records for this station are not official NWS values.
T = Trace of Precipitation, MM = Missing Value Source: NWS Daily Summary

Daily Weather History Graph

Daily Weather History Graph

Search for Another Location

Airport or City:

Trip Planner

Search our weather history database for the weather conditions in past years. The results will help you decide how hot, cold, wet, or windy it might be!

Date:

Astronomy

Feb. 02, 2013 Rise Set
Actual Time 7:28 AM EST 5:53 PM EST
Civil Twilight 7:01 AM EST 6:20 PM EST
Nautical Twilight 6:30 AM EST 6:51 PM EST
Astronomical Twilight 5:59 AM EST 7:22 PM EST
Moon No Moon Rise 10:49 AM EST (2/2)
Length of Visible Light 11h 19m
Length of Day
10h 24m
Waning Gibbous, 60% of the Moon is Illuminated
Feb 2
Waning Gibbous
Feb 3
Last Quarter
Feb 10
New
Feb 17
First Quarter
Feb 25
Full

Hourly Weather History & Observations

Time (EST) Temp. Windchill Dew Point Humidity Pressure Visibility Wind Dir Wind Speed Gust Speed Precip Events Conditions
12:15 AM 12.2 °F - 3.2 °F 67% 30.22 in 10.0 mi Calm Calm - N/A   Clear
12:35 AM 12.2 °F 4.3 °F 5.0 °F 73% 30.21 in 10.0 mi SW 4.6 mph - N/A   Clear
12:55 AM 14.0 °F 6.5 °F 5.0 °F 67% 30.20 in 10.0 mi Variable 4.6 mph - N/A   Clear
1:15 AM 14.0 °F 5.1 °F 5.0 °F 67% 30.20 in 10.0 mi SW 5.8 mph - N/A   Clear
1:35 AM 14.0 °F 5.1 °F 5.0 °F 67% 30.18 in 10.0 mi WSW 5.8 mph - N/A   Clear
1:55 AM 14.0 °F 6.5 °F 6.8 °F 73% 30.17 in 10.0 mi SW 4.6 mph - N/A   Clear
2:15 AM 15.8 °F 7.2 °F 6.8 °F 68% 30.18 in 10.0 mi WSW 5.8 mph - N/A   Clear
2:35 AM 14.0 °F 3.9 °F 6.8 °F 73% 30.18 in 10.0 mi WSW 6.9 mph - N/A   Clear
2:55 AM 14.0 °F 5.1 °F 6.8 °F 73% 30.19 in 10.0 mi WSW 5.8 mph - N/A   Clear
3:15 AM 14.0 °F 8.2 °F 6.8 °F 73% 30.18 in 10.0 mi SW 3.5 mph - N/A   Clear
3:35 AM 15.8 °F 10.2 °F 6.8 °F 68% 30.19 in 10.0 mi SW 3.5 mph - N/A   Clear
4:15 AM 15.8 °F 10.2 °F 6.8 °F 68% 30.17 in 10.0 mi Variable 3.5 mph - N/A   Clear
4:35 AM 14.0 °F - 6.8 °F 73% 30.18 in 10.0 mi Calm Calm - N/A   Clear
4:55 AM 12.2 °F 6.1 °F 8.6 °F 85% 30.17 in 10.0 mi Variable 3.5 mph - N/A   Clear
5:15 AM 12.2 °F 6.1 °F 8.6 °F 85% 30.16 in 10.0 mi Variable 3.5 mph - N/A   Clear
5:35 AM 12.2 °F 6.1 °F 6.8 °F 79% 30.17 in 10.0 mi Variable 3.5 mph - N/A   Clear
5:55 AM 14.0 °F 6.5 °F 6.8 °F 73% 30.16 in 10.0 mi South 4.6 mph - N/A   Clear
6:15 AM 14.0 °F 6.5 °F 5.0 °F 67% 30.16 in 10.0 mi South 4.6 mph - N/A   Clear
6:35 AM 12.2 °F 6.1 °F 6.8 °F 79% 30.17 in 10.0 mi South 3.5 mph - N/A   Clear
6:55 AM 14.0 °F 8.2 °F 6.8 °F 73% 30.16 in 10.0 mi South 3.5 mph - N/A   Clear
7:15 AM 14.0 °F 8.2 °F 6.8 °F 73% 30.16 in 10.0 mi Variable 3.5 mph - N/A   Clear
7:35 AM 15.8 °F 10.2 °F 3.2 °F 58% 30.16 in 10.0 mi Variable 3.5 mph - N/A   Partly Cloudy
7:55 AM 17.6 °F 12.3 °F 3.2 °F 53% 30.15 in 10.0 mi Variable 3.5 mph - N/A   Clear
8:15 AM 17.6 °F - 5.0 °F 58% 30.16 in 10.0 mi Calm Calm - N/A   Clear
8:35 AM 17.6 °F - 5.0 °F 58% 30.15 in 10.0 mi Calm Calm - N/A   Clear
8:55 AM 19.4 °F 12.8 °F 3.2 °F 49% 30.16 in 10.0 mi SW 4.6 mph - N/A   Clear
9:15 AM 17.6 °F 10.7 °F 10.4 °F 73% 30.14 in 7.0 mi Variable 4.6 mph - N/A   Clear
9:35 AM 19.4 °F 14.3 °F 10.4 °F 68% 30.14 in 10.0 mi SW 3.5 mph - N/A   Clear
9:55 AM 19.4 °F 14.3 °F 10.4 °F 68% 30.13 in 10.0 mi Variable 3.5 mph - N/A   Clear
10:15 AM 19.4 °F - 12.2 °F 74% 30.12 in 10.0 mi Calm Calm - N/A   Clear
10:35 AM 19.4 °F - 10.4 °F 68% 30.10 in 10.0 mi Calm Calm - N/A   Clear
10:55 AM 21.2 °F 16.4 °F 12.2 °F 68% 30.10 in 10.0 mi Variable 3.5 mph - N/A   Clear
11:15 AM 23.0 °F 18.4 °F 12.2 °F 63% 30.11 in 10.0 mi Variable 3.5 mph - N/A   Partly Cloudy
11:35 AM 24.8 °F 14.6 °F 10.4 °F 54% 30.11 in 10.0 mi West 10.4 mph - N/A   Clear
11:55 AM 23.0 °F 13.1 °F 12.2 °F 63% 30.11 in 3.0 mi West 9.2 mph - N/A   Clear
12:15 PM 23.0 °F 12.4 °F 17.6 °F 80% 30.11 in 1.8 mi WSW 10.4 mph - N/A   Clear
12:35 PM 21.2 °F 12.6 °F 19.4 °F 93% 30.06 in 2.0 mi Variable 6.9 mph - N/A   Clear
12:55 PM 21.2 °F 14.9 °F 21.2 °F 100% 30.05 in 3.0 mi Variable 4.6 mph - N/A   Clear
1:15 PM 21.2 °F 16.4 °F 21.2 °F 100% 30.04 in 2.0 mi Variable 3.5 mph - N/A   Unknown
1:35 PM 23.0 °F 17.0 °F 23.0 °F 100% 30.02 in 1.5 mi SW 4.6 mph - N/A   Clear
1:55 PM 23.0 °F 18.4 °F 23.0 °F 100% 30.00 in 2.5 mi Variable 3.5 mph - N/A   Clear
2:15 PM 24.8 °F 20.5 °F 24.8 °F 100% 30.00 in 1.2 mi Variable 3.5 mph - N/A   Clear
2:35 PM 24.8 °F 17.9 °F 23.0 °F 93% 29.99 in 3.0 mi Variable 5.8 mph - N/A   Clear
2:55 PM 24.8 °F 20.5 °F 24.8 °F 100% 29.99 in 10.0 mi Variable 3.5 mph - N/A   Unknown
3:15 PM 24.8 °F 17.9 °F 24.8 °F 100% 29.98 in 6.0 mi Variable 5.8 mph - N/A   Unknown
3:35 PM 24.8 °F 14.6 °F 24.8 °F 100% 29.96 in 2.0 mi WSW 10.4 mph - N/A   Clear
3:55 PM 24.8 °F 14.6 °F 24.8 °F 100% 29.97 in 1.2 mi WSW 10.4 mph - N/A   Clear
4:15 PM 24.8 °F 12.9 °F 24.8 °F 100% 29.97 in 1.0 mi West 13.8 mph - N/A   Unknown
4:35 PM 24.8 °F 16.1 °F 24.8 °F 100% 29.96 in 2.5 mi WSW 8.1 mph - N/A   Clear
4:55 PM 24.8 °F 16.9 °F 24.8 °F 100% 29.97 in 5.0 mi Variable 6.9 mph - N/A   Unknown
5:15 PM 24.8 °F 16.9 °F 23.0 °F 93% 29.97 in 1.5 mi Variable 6.9 mph - N/A   Unknown
5:35 PM 24.8 °F 16.1 °F 24.8 °F 100% 29.95 in 2.0 mi SW 8.1 mph - N/A   Clear
5:55 PM 24.8 °F 15.3 °F 24.8 °F 100% 29.96 in 2.0 mi WSW 9.2 mph - N/A   Clear
6:15 PM 24.8 °F 16.1 °F 24.8 °F 100% 29.95 in 10.0 mi SW 8.1 mph - N/A   Scattered Clouds
6:35 PM 24.8 °F 15.3 °F 24.8 °F 100% 29.95 in 10.0 mi WSW 9.2 mph - N/A   Scattered Clouds
6:55 PM 24.8 °F 16.1 °F 24.8 °F 100% 29.95 in 10.0 mi West 8.1 mph - N/A   Unknown
7:15 PM 24.8 °F 19.1 °F 24.8 °F 100% 29.96 in 10.0 mi Variable 4.6 mph - N/A   Unknown
7:35 PM 26.6 °F 19.1 °F 24.8 °F 93% 29.96 in 10.0 mi Variable 6.9 mph - N/A   Partly Cloudy
7:55 PM 26.6 °F 19.1 °F 24.8 °F 93% 29.96 in 9.0 mi WSW 6.9 mph - N/A   Partly Cloudy
8:15 PM 26.6 °F 18.2 °F 24.8 °F 93% 29.96 in 5.0 mi West 8.1 mph - N/A   Clear
8:35 PM 26.6 °F 18.2 °F 24.8 °F 93% 29.95 in 5.0 mi WSW 8.1 mph - N/A   Clear
8:55 PM 26.6 °F 19.1 °F 24.8 °F 93% 29.96 in 4.0 mi WSW 6.9 mph - N/A   Clear
9:15 PM 24.8 °F 16.9 °F 24.8 °F 100% 29.97 in 3.0 mi Variable 6.9 mph - N/A   Unknown
9:35 PM 24.8 °F 16.1 °F 24.8 °F 100% 29.96 in 10.0 mi WSW 8.1 mph - N/A   Partly Cloudy
9:55 PM 24.8 °F 15.3 °F 24.8 °F 100% 29.96 in 5.0 mi WSW 9.2 mph - N/A   Partly Cloudy
10:15 PM 24.8 °F 15.3 °F 24.8 °F 100% 29.95 in 3.0 mi WSW 9.2 mph - N/A   Unknown
10:35 PM 26.6 °F 19.1 °F 26.6 °F 100% 29.95 in 6.0 mi Variable 6.9 mph - N/A   Unknown
10:55 PM 26.6 °F 17.5 °F 24.8 °F 93% 29.95 in 5.0 mi WSW 9.2 mph - N/A   Unknown
11:55 PM 26.6 °F 19.1 °F 26.6 °F 100% 29.94 in 3.0 mi Variable 6.9 mph - N/A   Clear